Date String (YYYY-MM-DD hh:mm:ss) UTC,Instrument flags,absolute air pressure of the measurement (hPa),sample flow rate (lpm),inlet stack bypass flow (lpm),air temperature of the measurement (°C),ambient temperature measured by the external sensor (°C),aerosol sample conditioner tube jacket temperature (°C),OPC LED temperature (°C),internal box temperature (°C),relative humidity of the measurement (%),span deviation,mass concentration of particles derived from Lorenz-Mie calculation of OPC scattering (μg/m³),mass concentration of particles derived from Lorenz-Mie calculation of OPC scattering (μg/m³),mass concentration of particles derived from Lorenz-Mie calculation of OPC scattering (μg/m³)
DateTimeUTC,F1_M11,P_M11,Q1_M11,Q2_M11,T1_M11,T2_M11,T3_M11,T4_M11,T5_M11,U1_M11,ZSPAN_M11,X2_M11,X0_M11,X1_M11
2023-06-29 03:00:00,SystemResetWarning,0828.4,5.01,000.00,029.2,025.7,000.0,037.4,030.6,33.4,-000.2,0009.45,0025.50,0007.29
2023-06-29 03:01:00,SystemResetWarning,0828.4,5.00,000.00,029.1,025.6,000.0,037.4,030.4,33.2,-000.0,0009.43,0025.04,0007.28
2023-06-29 03:02:00,SystemResetWarning,0828.4,5.01,000.00,029.1,025.9,000.0,037.5,030.3,33.3,-000.5,0009.45,0024.89,0007.27
2023-06-29 03:03:00,SystemResetWarning,0828.4,4.99,000.00,029.1,026.3,000.0,037.5,030.4,33.4,-000.6,0009.40,0023.28,0007.23
2023-06-29 03:04:00,SystemResetWarning,0828.4,5.00,000.00,029.1,026.6,000.0,037.5,030.5,33.4,-000.3,0009.32,0022.64,0007.20
2023-06-29 03:05:00,SystemResetWarning,0828.4,5.00,000.00,029.1,027.0,000.0,037.5,030.6,33.2,-000.1,0009.34,0021.60,0007.19
2023-06-29 03:06:00,SystemResetWarning,0828.4,5.01,000.00,029.1,027.3,000.0,037.6,030.7,33.1,-000.9,0009.28,0021.93,0007.17
2023-06-29 03:07:00,SystemResetWarning,0828.3,4.99,000.00,029.2,027.5,000.0,037.6,030.8,33.1,-001.1,0009.26,0022.56,0007.15
2023-06-29 03:08:00,SystemResetWarning,0828.3,5.00,000.00,029.2,027.7,000.0,037.6,030.8,33.1,-001.2,0009.27,0022.65,0007.13
2023-06-29 03:09:00,SystemResetWarning,0828.3,5.00,000.00,029.2,027.5,000.0,037.6,030.8,33.0,-001.1,0009.25,0022.53,0007.11
2023-06-29 03:10:00,SystemResetWarning,0828.4,4.99,000.00,029.2,026.1,000.0,037.5,030.7,32.9,-001.3,0009.17,0021.41,0007.08
2023-06-29 03:11:00,SystemResetWarning,0828.4,5.00,000.00,029.1,025.5,000.0,037.4,030.5,32.7,-001.4,0009.11,0021.61,0007.05
2023-06-29 03:12:00,SystemResetWarning,0828.4,5.01,000.00,029.1,025.6,000.0,037.4,030.3,32.8,-001.6,0009.05,0021.28,0007.04
2023-06-29 03:13:00,SystemResetWarning,0828.5,5.01,000.00,029.0,026.0,000.0,037.5,030.3,32.8,-001.2,0009.02,0021.89,0007.03
2023-06-29 03:14:00,SystemResetWarning,0828.6,4.99,000.00,029.0,026.4,000.0,037.5,030.4,32.8,-001.2,0008.97,0022.28,0007.01
2023-06-29 03:15:00,SystemResetWarning,0828.6,5.00,000.00,029.0,026.7,000.0,037.5,030.5,32.7,-001.2,0008.97,0022.45,0006.99
2023-06-29 03:16:00,SystemResetWarning,0828.6,5.00,000.00,029.0,027.0,000.0,037.5,030.6,32.6,-001.4,0008.90,0022.59,0006.99
2023-06-29 03:17:00,SystemResetWarning,0828.6,5.00,000.00,029.1,027.3,000.0,037.5,030.7,32.5,-001.2,0008.87,0022.11,0006.96
2023-06-29 03:18:00,SystemResetWarning,0828.6,4.99,000.00,029.1,027.6,000.0,037.5,030.7,32.3,-000.9,0008.85,0022.07,0006.95
2023-06-29 03:19:00,SystemResetWarning,0828.6,4.99,000.00,029.2,027.8,000.0,037.6,030.8,32.2,-000.1,0008.85,0022.08,0006.94
2023-06-29 03:20:00,SystemResetWarning,0828.7,5.00,000.00,029.2,027.7,000.0,037.5,030.8,32.1,0000.1,0008.85,0022.36,0006.93
2023-06-29 03:21:00,SystemResetWarning,0828.7,5.00,000.00,029.2,026.3,000.0,037.4,030.6,32.1,-000.1,0008.89,0022.71,0006.93
2023-06-29 03:22:00,SystemResetWarning,0828.6,5.00,000.00,029.1,025.5,000.0,037.4,030.5,32.2,-000.5,0008.93,0022.47,0006.94
2023-06-29 03:23:00,SystemResetWarning,0828.6,5.01,000.00,029.0,025.5,000.0,037.4,030.2,32.5,-000.5,0009.02,0023.51,0006.94
2023-06-29 03:24:00,SystemResetWarning,0828.7,5.01,000.00,029.0,025.8,000.0,037.4,030.3,32.7,-000.5,0009.04,0023.16,0006.94
2023-06-29 03:25:00,SystemResetWarning,0828.7,5.00,000.00,028.9,026.2,000.0,037.4,030.4,32.6,-000.1,0009.05,0022.44,0006.95
2023-06-29 03:26:00,SystemResetWarning,0828.7,5.00,000.00,029.0,026.6,000.0,037.4,030.5,32.6,-000.3,0009.03,0022.43,0006.95
2023-06-29 03:27:00,SystemResetWarning,0828.8,5.00,000.00,029.0,026.9,000.0,037.5,030.5,32.5,-000.6,0009.04,0022.60,0006.95
2023-06-29 03:28:00,SystemResetWarning,0828.7,5.01,000.00,029.0,027.2,000.0,037.5,030.6,32.5,-000.6,0009.06,0022.60,0006.95
2023-06-29 03:29:00,SystemResetWarning,0828.8,4.98,000.00,029.1,027.5,000.0,037.5,030.7,32.3,-000.5,0009.12,0022.55,0006.96
2023-06-29 03:30:00,SystemResetWarning,0828.9,5.00,000.00,029.1,027.7,000.0,037.5,030.8,32.2,-000.9,0009.05,0023.46,0006.95
2023-06-29 03:31:00,SystemResetWarning,0829.0,5.01,000.00,029.1,027.8,000.0,037.5,030.8,32.2,-001.0,0009.05,0024.12,0006.95
2023-06-29 03:32:00,SystemResetWarning,0829.0,4.98,000.00,029.2,027.4,000.0,037.5,030.8,32.0,-000.2,0009.00,0024.60,0006.94
2023-06-29 03:33:00,SystemResetWarning,0829.0,4.99,000.00,029.1,025.9,000.0,037.4,030.6,31.9,0000.3,0008.96,0024.23,0006.92
2023-06-29 03:34:00,SystemResetWarning,0829.0,5.00,000.00,029.1,025.4,000.0,037.3,030.4,32.0,0000.3,0008.94,0023.77,0006.91
2023-06-29 03:35:00,SystemResetWarning,0829.0,5.01,000.00,029.0,025.5,000.0,037.4,030.2,32.1,0000.0,0008.92,0023.99,0006.90
2023-06-29 03:36:00,SystemResetWarning,0829.0,5.01,000.00,028.9,025.9,000.0,037.4,030.3,32.2,-000.6,0008.94,0024.43,0006.90
2023-06-29 03:37:00,SystemResetWarning,0829.0,5.00,000.00,028.9,026.3,000.0,037.4,030.4,32.1,-000.1,0008.99,0025.21,0006.89
2023-06-29 03:38:00,SystemResetWarning,0828.9,5.00,000.00,029.0,026.6,000.0,037.4,030.5,32.1,0000.1,0008.96,0025.26,0006.89
2023-06-29 03:39:00,SystemResetWarning,0828.9,5.00,000.00,029.0,027.0,000.0,037.4,030.5,32.0,0000.5,0008.96,0025.92,0006.89
2023-06-29 03:40:00,SystemResetWarning,0829.0,4.99,000.00,029.0,027.2,000.0,037.4,030.6,31.9,0000.3,0008.84,0025.34,0006.88
2023-06-29 03:41:00,SystemResetWarning,0829.0,5.00,000.00,029.0,027.5,000.0,037.5,030.7,31.8,0000.0,0008.83,0023.71,0006.86
2023-06-29 03:42:00,SystemResetWarning,0829.1,5.00,000.00,029.1,027.7,000.0,037.5,030.7,31.8,0000.2,0008.79,0023.07,0006.86
2023-06-29 03:43:00,SystemResetWarning,0829.1,5.00,000.00,029.1,027.9,000.0,037.5,030.8,31.6,-000.3,0008.79,0022.20,0006.85
2023-06-29 03:44:00,SystemResetWarning,0829.2,5.00,000.00,029.2,027.7,000.0,037.5,030.8,31.4,-000.6,0008.75,0022.56,0006.85
2023-06-29 03:45:00,SystemResetWarning,0829.3,4.99,000.00,029.2,026.3,000.0,037.4,030.7,31.4,-000.0,0008.73,0023.45,0006.83
2023-06-29 03:46:00,SystemResetWarning,0829.4,5.00,000.00,029.1,025.5,000.0,037.3,030.5,31.5,0000.1,0008.74,0022.85,0006.84
2023-06-29 03:47:00,SystemResetWarning,0829.6,5.01,000.00,029.0,025.5,000.0,037.4,030.3,31.9,0000.4,0008.75,0022.25,0006.84
2023-06-29 03:48:00,SystemResetWarning,0829.5,5.00,000.00,028.9,025.8,000.0,037.4,030.3,33.6,0000.2,0008.76,0022.55,0006.85
2023-06-29 03:49:00,SystemResetWarning,0829.7,4.99,000.00,028.9,026.2,000.0,037.4,030.4,34.8,0000.1,0008.85,0023.41,0006.84
2023-06-29 03:50:00,SystemResetWarning,0829.7,4.98,000.00,029.0,026.6,000.0,037.4,030.5,35.1,-000.4,0008.96,0024.45,0006.86
2023-06-29 03:51:00,SystemResetWarning,0829.6,5.04,000.00,029.2,026.9,000.0,037.4,030.7,35.0,-000.9,0009.08,0025.74,0006.87
2023-06-29 03:52:00,SystemResetWarning,0829.7,4.96,000.00,029.4,027.2,000.0,037.5,030.8,34.7,-000.8,0009.20,0026.60,0006.86
2023-06-29 03:53:00,SystemResetWarning,0829.7,5.01,000.00,029.6,027.5,000.0,037.5,030.9,34.5,-000.5,0009.25,0026.57,0006.85
2023-06-29 03:54:00,SystemResetWarning,0829.7,5.01,000.00,029.7,027.7,000.0,037.6,030.9,34.6,-000.2,0009.27,0027.10,0006.82
2023-06-29 03:55:00,SystemResetWarning,0829.7,5.00,000.00,029.8,027.9,000.0,037.6,031.0,34.4,-000.2,0009.30,0028.22,0006.77
2023-06-29 03:56:00,SystemResetWarning,0829.7,4.99,000.00,029.9,028.0,000.0,037.7,031.0,34.3,-000.9,0009.34,0027.97,0006.72
2023-06-29 03:57:00,SystemResetWarning,0829.7,5.00,000.00,029.9,028.1,000.0,037.8,031.1,34.3,-000.5,0009.36,0029.01,0006.65
2023-06-29 03:58:00,SystemResetWarning,0829.7,5.00,000.00,029.9,026.9,000.0,037.8,031.0,34.2,-000.2,0009.38,0030.79,0006.58
2023-06-29 03:59:00,SystemResetWarning,0829.7,5.01,000.00,029.9,025.6,000.0,037.7,030.7,34.4,-000.4,0009.36,0031.44,0006.52
